Location: Mohawk View
(42.7837°N, 73.7885°W)
Time: 08:36:38
(UTC+00:00)

Cosmos 1763 Rocket - Pass Details

Date: 17 June 2021
Orbit: 732 x 781 km, 74.0° (Epoch: 27 July)

Event Time Altitude Azimuth Distance (km) Brightness Sun altitude
Exits shadow 06:35:30 38° 234° (SW) 1,114 3.9 -20.0°
Maximum altitude 06:37:12 58° 293° (WNW) 861 3.7 -19.8°
Drops below altitude 10° 06:42:15 10° 13° (NNE) 2,264 7.1 -19.5°
Sets 06:44:41 0° 17° (NNE) 3,199 8.3 -19.3°
